[[{"header":{"parameterUnit":"m.s-1","parameterCategory":2,"la1":30.2991,"la2":30.254,"lo1":-89.0895,"lo2":-89.0444,"dy":0.0017,"dx":0.0017,"nx":28,"ny":28,"refTime":"2024-03-12T21:00:00:Z","depth":"0","parameterNumber":2,"parameterNumberName":"U-component_of_CURRENTS"},"data":[0,0,0,0,0,0,0,0,0,0,0,0,0,0,0,0,0,0,0,0,0,0,0,0,0,0,0,0,0,0,0,0,0,0,0,0,0,0,0,0,0,0,0,0,0,0,0,0,0,0,0,0,0,0,0,0,0,0,0.1927,0.1928,0,0.1946,0.1946,0.1946,0.1918,0.1917,0.1916,0.1916,0.1896,0.1896,0.1896,0,0,0,0,0,0,0,0,0,0,0,0,0,0.1911,0.1911,0.1927,0.1928,0.1928,0.1946,0.1946,0.1946,0.1918,0.1917,0.1916,0.1915,0.1896,0.1896,0.1896,0,0,0,0,0,0,0,0,0,0,0,0,0,0.192,0.1911,0.1927,0.1918,0.1918,0.1946,0.1946,0.1946,0.1918,0.1917,0.1916,0.1915,0.1896,0.1896,0.1896,0.1919,0,0,0.1897,0.1897,0,0,0,0,0,0,0,0,0.1919,0.192,0.1919,0.1919,0.1919,0.1931,0.1934,0.1936,0.1918,0.1915,0.1916,0.1914,0.1907,0.1906,0.1908,0.1918,0.1917,0.1897,0.1897,0.1897,0.1897,0,0,0,0,0,0,0,0.1919,0.1919,0.1932,0.192,0.192,0.1929,0.1929,0.1934,0.1913,0.1915,0.1914,0.1921,0.1906,0.1908,0.1907,0.1917,0.1897,0.1897,0.1897,0.1897,0.1955,0.1957,0,0,0,0,0,0,0.1921,0.1919,0.1931,0.1932,0.192,0.1931,0.193,0.1926,0.1914,0.1913,0.1922,0.192,0.1908,0.1907,0.1907,0.1943,0.1897,0.1897,0.1897,0.1954,0.1956,0.1957,0,0,0,0,0,0,0.1921,0.1922,0.193,0.1929,0.1931,0.1932,0.1928,0.1927,0.193,0.1921,0.1917,0.1927,0.1907,0.1906,0.1916,0.1941,0.1897,0.1897,0.1952,0.1954,0.1956,0.2009,0,0,0,0,0,0,0.192,0.1921,0.1924,0.1929,0.1931,0.1949,0.1929,0.1928,0.1938,0.1935,0.1924,0.1921,0.1906,0.1916,0.1916,0.1941,0.1898,0.195,0.1953,0.1956,0.2006,0.2013,0.2019,0,0,0,0,0,0.1919,0.193,0.1923,0.1926,0.1933,0.195,0.1952,0.1947,0.1939,0.1945,0.1939,0.1921,0.1933,0.1917,0.1917,0.1943,0.1949,0.1952,0.1956,0.2003,0.2012,0.2019,0,0,0,0,0,0,0.1923,0.1929,0.1921,0.1932,0.194,0.1946,0.1957,0.1955,0.1956,0.1954,0.1937,0.1935,0.1957,0.1944,0.1927,0.1969,0.194,0.1943,0.1976,0.1984,0.1991,0.2021,0.1898,0,0,0,0,0,0.1927,0.1934,0.1939,0.1948,0.1953,0.1956,0.1965,0.1963,0.1966,0.1966,0.1955,0.1955,0.1972,0.1972,0.1978,0.1998,0.2032,0.2016,0.2022,0.2028,0.2054,0.2111,0.2125,0.1968,0.1968,0.1968,0,0,0.1931,0.1936,0.1939,0.195,0.1955,0.1973,0.1958,0.1975,0.1992,0.1965,0.1978,0.1979,0.1984,0.2008,0.2016,0.1998,0.2098,0.2032,0.2037,0.206,0.2116,0.2131,0.2145,0.197,0.1969,0.1969,0,0,0.1948,0.1947,0.1959,0.1971,0.1987,0.1992,0.2,0.2005,0.2008,0.2027,0.202,0.2043,0.2043,0.2062,0.2073,0.2125,0.2135,0.2116,0.2168,0.2223,0.2237,0.2249,0.2342,0.2362,0.2113,0.2113,0.2113,0,0.1955,0.1964,0.1967,0.1987,0.2001,0.2003,0.2023,0.2037,0.2043,0.2056,0.2035,0.208,0.208,0.2137,0.2156,0.2143,0.2182,0.2134,0.2233,0.2246,0.2258,0.235,0.2371,0.2116,0.2116,0.2116,0.2115,0,0.1981,0.1992,0.2004,0.2024,0.2042,0.2061,0.208,0.2093,0.2096,0.2109,0.2155,0.2164,0.2192,0.2197,0.2195,0.2278,0.2285,0.2239,0.2213,0.2277,0.237,0.2392,0.212,0.2119,0.2119,0.2118,0,0,0.1985,0.2014,0.2018,0.203,0.2061,0.2077,0.2115,0.2149,0.2185,0.2195,0.2251,0.2286,0.2292,0.2308,0.2308,0.2359,0.2486,0.2338,0.2339,0.2434,0.2643,0.2485,0.2494,0.2447,0.245,0.2453,0.2685,0,0.2,0.2034,0.205,0.2085,0.2102,0.2123,0.216,0.2197,0.2226,0.228,0.2315,0.2366,0.2334,0.236,0.2408,0.2468,0.2541,0.2431,0.2565,0.2571,0.2423,0.2511,0.2319,0.2493,0.2706,0.271,0.2712,0,0.2018,0.2038,0.2071,0.2109,0.212,0.2148,0.2208,0.2245,0.2326,0.2354,0.2412,0.2441,0.2541,0.2492,0.2643,0.257,0.2625,0.2666,0.2674,0.2523,0.245,0.2458,0.2524,0.2416,0.2745,0.2743,0.274,0,0.2014,0.2051,0.2074,0.2089,0.2139,0.2162,0.2193,0.2265,0.2313,0.2416,0.2472,0.2562,0.2629,0.2704,0.277,0.2725,0.2935,0.2876,0.2801,0.2793,0.2655,0.2626,0.263,0.3001,0.3,0.3,0.2999,0,0.2025,0.2047,0.2072,0.2091,0.2133,0.2165,0.2229,0.2277,0.2369,0.2439,0.2511,0.2584,0.2682,0.2788,0.2838,0.2887,0.299,0.2849,0.284,0.2667,0.2638,0.2553,0.2519,0.3008,0.3006,0.3005,0.3003,0,0.2035,0.2045,0.2081,0.2122,0.2134,0.2172,0.2245,0.2295,0.238,0.2483,0.2524,0.265,0.2767,0.2861,0.3008,0.296,0.2915,0.3023,0.2826,0.2785,0.2531,0.2507,0.2445,0.2377,0.2986,0.2983,0.2981,0,0.2052,0.2067,0.2105,0.2124,0.2145,0.2193,0.2227,0.2299,0.2351,0.2502,0.2551,0.2698,0.2764,0.2919,0.2886,0.2958,0.287,0.2791,0.2639,0.2514,0.2485,0.2382,0.2323,0.2527,0.2521,0.2517,0.2513,0,0.21,0.2108,0.2136,0.2156,0.2183,0.2214,0.226,0.2295,0.2381,0.2455,0.2545,0.2615,0.2717,0.2662,0.271,0.271,0.2571,0.2689,0.262,0.2176,0.2011,0.1938,0.2419,0.2471,0.2475,0.2478,0.248,0.2482,0.2143,0.2165,0.2181,0.2192,0.2211,0.2211,0.2206,0.2247,0.2295,0.2346,0.2459,0.2473,0.244,0.2449,0.2444,0.222,0.2291,0.2092,0.2107,0.204,0.184,0.2223,0.219,0.2192,0.2194,0.2196,0.2198,0,0.2179,0.2188,0.2211,0.2194,0.2175,0.2193,0.2203,0.2167,0.2158,0.2208,0.2243,0.2137,0.2042,0.1996,0.1786,0.166,0.1592,0.1593,0.1439,0.1439,0.1842,0.1679,0.1454,0.1454,0.1454,0.1455,0.1455,0.1455,0.2201,0.221,0.2195,0.2145,0.2124,0.2054,0.2034,0.1989,0.1979,0.1879,0.1782,0.179,0.1682,0.1477,0.1273,0.1238,0.1145,0.1016,0.1106,0.14,0.1448,0.1494,0.1332,0.1038,0.1038,0.0585,0.0581,0.0579]},{"header":{"parameterUnit":"m.s-1","parameterCategory":2,"la1":30.2991,"la2":30.254,"lo1":-89.0895,"lo2":-89.0444,"dy":0.0017,"dx":0.0017,"nx":28,"ny":28,"refTime":"2024-03-12T21:00:00:Z","depth":"0","parameterNumber":3,"parameterNumberName":"V-component_of_CURRENTS"},"data":[0,0,0,0,0,0,0,0,0,0,0,0,0,0,0,0,0,0,0,0,0,0,0,0,0,0,0,0,0,0,0,0,0,0,0,0,0,0,0,0,0,0,0,0,0,0,0,0,0,0,0,0,0,0,0,0,0,0,0.0163,0.0163,0,0.0154,0.0154,0.0154,0.0141,0.014,0.014,0.014,0.0118,0.0117,0.0117,0,0,0,0,0,0,0,0,0,0,0,0,0,0.0158,0.0158,0.0164,0.0163,0.0163,0.0154,0.0154,0.0154,0.0141,0.014,0.014,0.014,0.0118,0.0117,0.0117,0,0,0,0,0,0,0,0,0,0,0,0,0,0.0156,0.0158,0.0164,0.0155,0.0154,0.0154,0.0154,0.0154,0.0141,0.014,0.014,0.014,0.0118,0.0117,0.0117,0.0121,0,0,0.0115,0.0115,0,0,0,0,0,0,0,0,0.0156,0.0156,0.0157,0.0156,0.0155,0.0148,0.0144,0.0142,0.0141,0.0146,0.014,0.0139,0.0127,0.0125,0.0125,0.012,0.0119,0.0115,0.0115,0.0115,0.0114,0,0,0,0,0,0,0,0.0156,0.0156,0.016,0.0156,0.0155,0.0148,0.0148,0.0144,0.0139,0.0146,0.0145,0.0143,0.0126,0.0126,0.0124,0.0119,0.0115,0.0115,0.0114,0.0114,0.0114,0.0114,0,0,0,0,0,0,0.0158,0.0157,0.016,0.016,0.0154,0.0149,0.0148,0.0151,0.0139,0.0137,0.0144,0.0143,0.0127,0.0125,0.0123,0.014,0.0115,0.0114,0.0114,0.0113,0.0114,0.0114,0,0,0,0,0,0,0.0158,0.0159,0.0161,0.0158,0.0157,0.0149,0.0152,0.0151,0.0152,0.0138,0.0135,0.0147,0.0126,0.0124,0.0126,0.0139,0.0114,0.0113,0.0113,0.0113,0.0114,0.0166,0,0,0,0,0,0,0.0158,0.0159,0.0163,0.0158,0.0158,0.0168,0.0153,0.0151,0.0152,0.015,0.0139,0.0137,0.0126,0.0127,0.0125,0.0138,0.0113,0.0113,0.0113,0.0114,0.0164,0.0168,0.0172,0,0,0,0,0,0.0158,0.0171,0.0163,0.0164,0.0163,0.0169,0.0168,0.0161,0.0152,0.0159,0.015,0.0137,0.0129,0.0127,0.0125,0.0138,0.0112,0.0113,0.0114,0.0162,0.0168,0.0172,0,0,0,0,0,0,0.0171,0.017,0.0162,0.0173,0.0172,0.0166,0.0172,0.0165,0.0163,0.0161,0.0145,0.0142,0.0146,0.0134,0.0132,0.0137,0.0117,0.0117,0.0155,0.0159,0.0163,0.0195,0.0112,0,0,0,0,0,0.0175,0.0183,0.0179,0.0187,0.0188,0.0179,0.018,0.0175,0.0172,0.0171,0.0161,0.0151,0.0148,0.0147,0.014,0.0147,0.0158,0.0151,0.0155,0.0159,0.0182,0.0199,0.0208,0.0116,0.0116,0.0116,0,0,0.018,0.0181,0.0185,0.019,0.0187,0.02,0.0179,0.0185,0.0198,0.0169,0.0181,0.0164,0.0152,0.0159,0.016,0.0151,0.0192,0.016,0.0163,0.0185,0.0201,0.021,0.0219,0.0117,0.0117,0.0116,0,0,0.0201,0.0198,0.0213,0.0217,0.0217,0.0216,0.0219,0.0215,0.0216,0.0225,0.0205,0.0205,0.0194,0.0195,0.0193,0.0215,0.0211,0.02,0.0251,0.0266,0.0275,0.0282,0.0318,0.0329,0.0204,0.0204,0.0204,0,0.0207,0.0228,0.0218,0.0235,0.0247,0.0226,0.025,0.0249,0.0246,0.026,0.0236,0.0243,0.0219,0.0249,0.0247,0.0228,0.0239,0.0235,0.0274,0.0282,0.0288,0.0323,0.0334,0.0207,0.0207,0.0206,0.0206,0,0.0242,0.0258,0.0269,0.0285,0.0295,0.0312,0.0311,0.032,0.0314,0.0317,0.034,0.0315,0.0328,0.0307,0.0282,0.0317,0.0311,0.0276,0.0268,0.0301,0.0335,0.0346,0.0211,0.021,0.0209,0.0208,0,0,0.0264,0.0289,0.0295,0.0318,0.0326,0.0345,0.0366,0.0394,0.0434,0.0414,0.0474,0.044,0.0432,0.0429,0.0398,0.04,0.0443,0.0358,0.0358,0.0406,0.0497,0.0462,0.047,0.041,0.0412,0.0413,0.0506,0,0.0297,0.0346,0.0348,0.04,0.0428,0.0426,0.046,0.048,0.0494,0.0543,0.0524,0.0562,0.0478,0.0497,0.0483,0.0462,0.047,0.0423,0.0448,0.045,0.0423,0.048,0.0464,0.0543,0.0516,0.0518,0.0519,0,0.0337,0.0367,0.0425,0.0479,0.0494,0.0524,0.0593,0.0621,0.0669,0.0685,0.0708,0.0699,0.0718,0.0637,0.063,0.0602,0.0558,0.0528,0.053,0.0491,0.0434,0.0501,0.0562,0.0491,0.0535,0.0533,0.0532,0,0.0379,0.0427,0.0481,0.0497,0.0549,0.0587,0.0622,0.0671,0.0729,0.0794,0.0856,0.0851,0.0891,0.0827,0.0748,0.0699,0.0743,0.0671,0.0605,0.0603,0.0593,0.0587,0.06,0.067,0.067,0.067,0.0669,0,0.0427,0.0474,0.051,0.0546,0.0633,0.0646,0.075,0.0785,0.0867,0.0966,0.0944,0.1026,0.0938,0.0939,0.0829,0.0768,0.0811,0.0645,0.063,0.061,0.0604,0.0542,0.0515,0.0673,0.0672,0.0672,0.0671,0,0.0483,0.0497,0.0572,0.0634,0.066,0.0731,0.0839,0.0917,0.0981,0.1119,0.1155,0.1195,0.1193,0.1098,0.1028,0.0902,0.0789,0.0784,0.0776,0.0757,0.0592,0.0569,0.0607,0.056,0.0739,0.0739,0.0738,0,0.0522,0.0563,0.0646,0.0697,0.0734,0.0829,0.0903,0.0976,0.1067,0.1221,0.1302,0.1351,0.1386,0.1284,0.1079,0.0927,0.0827,0.0801,0.0685,0.0612,0.0576,0.0554,0.051,0.0707,0.0706,0.0706,0.0706,0,0.0609,0.0635,0.0695,0.0786,0.0868,0.0969,0.1077,0.1159,0.1266,0.1377,0.1514,0.1558,0.1473,0.1314,0.11,0.0969,0.0755,0.0786,0.072,0.0572,0.0546,0.0484,0.063,0.0703,0.0703,0.0703,0.0703,0.0703,0.0679,0.0733,0.0796,0.0886,0.0976,0.1085,0.1158,0.1272,0.1411,0.156,0.1632,0.1695,0.1493,0.119,0.103,0.0715,0.0728,0.06,0.059,0.0584,0.05,0.0644,0.0678,0.0678,0.0678,0.0678,0.0678,0,0.075,0.08,0.0887,0.098,0.1066,0.1107,0.1255,0.1318,0.1449,0.1604,0.1711,0.1625,0.1396,0.1123,0.0722,0.0547,0.0461,0.0466,0.0435,0.0402,0.0544,0.0498,0.0483,0.0483,0.0483,0.0483,0.0484,0.0484,0.0792,0.0866,0.0895,0.1027,0.109,0.1186,0.1255,0.1361,0.1472,0.157,0.1588,0.1615,0.1402,0.0889,0.0524,0.0434,0.0313,0.0305,0.0252,0.034,0.0351,0.0362,0.031,0.0256,0.0256,0.0095,0.0093,0.0092]}],[{"header":{"parameterUnit":"m.s-1","parameterCategory":2,"la1":30.2991,"la2":30.254,"lo1":-89.0895,"lo2":-89.0444,"dy":0.0017,"dx":0.0017,"nx":28,"ny":28,"refTime":"2024-03-12T21:00:00:Z","depth":"2","parameterNumber":2,"parameterNumberName":"U-component_of_CURRENTS"},"data":[0,0,0,0,0,0,0,0,0,0,0,0,0,0,0,0,0,0,0,0,0,0,0,0,0,0,0,0,0,0,0,0,0,0,0,0,0,0,0,0,0,0,0,0,0,0,0,0,0,0,0,0,0,0,0,0,0,0,0.1804,0.1804,0,0.1812,0.1813,0.1813,0.1797,0.1796,0.1796,0.1795,0.1786,0.1786,0.1786,0,0,0,0,0,0,0,0,0,0,0,0,0,0.1811,0.1811,0.1804,0.1804,0.1804,0.1812,0.1813,0.1813,0.1797,0.1796,0.1795,0.1795,0.1786,0.1786,0.1786,0,0,0,0,0,0,0,0,0,0,0,0,0,0.1813,0.1811,0.1804,0.1797,0.1797,0.1812,0.1813,0.1813,0.1797,0.1796,0.1795,0.1795,0.1786,0.1786,0.1786,0.1805,0,0,0.1788,0.1788,0,0,0,0,0,0,0,0,0.1813,0.1813,0.1798,0.1798,0.1797,0.1803,0.1812,0.1809,0.1797,0.1797,0.1795,0.1794,0.179,0.179,0.1794,0.1805,0.1804,0.1788,0.1788,0.1788,0.1788,0,0,0,0,0,0,0,0.1813,0.1812,0.1808,0.1798,0.1798,0.1806,0.1805,0.1811,0.1798,0.1797,0.1796,0.1797,0.179,0.1794,0.1794,0.1804,0.1788,0.1788,0.1788,0.1788,0.1846,0.1847,0,0,0,0,0,0,0.181,0.1812,0.1807,0.1808,0.1803,0.1807,0.1806,0.1802,0.1798,0.1797,0.1797,0.1796,0.1794,0.1793,0.1793,0.1843,0.1788,0.1788,0.1789,0.1845,0.1846,0.1848,0,0,0,0,0,0,0.181,0.181,0.1807,0.181,0.1811,0.1807,0.1803,0.1802,0.1812,0.1799,0.1797,0.1808,0.1793,0.1793,0.1797,0.1842,0.1789,0.1789,0.1843,0.1845,0.1847,0.1925,0,0,0,0,0,0,0.181,0.1809,0.1812,0.181,0.181,0.182,0.1804,0.1803,0.1813,0.1812,0.1807,0.1805,0.1792,0.1797,0.1798,0.1841,0.1789,0.1842,0.1844,0.1846,0.1921,0.193,0.1937,0,0,0,0,0,0.1811,0.1814,0.1812,0.1812,0.1812,0.1821,0.1822,0.1817,0.1815,0.1823,0.1814,0.1806,0.1813,0.1798,0.1799,0.1843,0.184,0.1843,0.1846,0.1917,0.1928,0.1937,0,0,0,0,0,0,0.1817,0.1813,0.181,0.1812,0.1819,0.1818,0.1825,0.1827,0.1829,0.1828,0.1814,0.1812,0.1835,0.1825,0.1808,0.1866,0.183,0.1833,0.1884,0.1893,0.1901,0.1902,0.1789,0,0,0,0,0,0.1821,0.1825,0.1822,0.1828,0.1829,0.1832,0.1838,0.1837,0.1837,0.1838,0.1836,0.1837,0.1849,0.1857,0.1857,0.1888,0.1899,0.1919,0.1927,0.1934,0.1935,0.1997,0.2011,0.1857,0.1857,0.1857,0,0,0.1826,0.1825,0.1827,0.1831,0.1834,0.1843,0.1834,0.1846,0.1861,0.1837,0.1857,0.1861,0.1861,0.1891,0.1903,0.1889,0.1985,0.1938,0.1944,0.1941,0.2002,0.2017,0.203,0.1859,0.1859,0.1859,0,0,0.1838,0.1837,0.1842,0.1851,0.186,0.186,0.1866,0.1873,0.1883,0.19,0.1895,0.1919,0.193,0.1947,0.1955,0.2008,0.202,0.2021,0.2071,0.2132,0.2145,0.2157,0.2197,0.2212,0.2032,0.2032,0.2032,0,0.1846,0.1847,0.1848,0.1859,0.1867,0.1869,0.188,0.1895,0.1906,0.1926,0.191,0.1958,0.1957,0.2013,0.2034,0.2028,0.2061,0.2036,0.2144,0.2156,0.2167,0.2205,0.222,0.2036,0.2036,0.2035,0.2035,0,0.1859,0.1866,0.1873,0.1882,0.1894,0.1905,0.192,0.1945,0.1955,0.1971,0.2023,0.2028,0.2063,0.2077,0.2071,0.216,0.2158,0.2144,0.2123,0.2188,0.2223,0.2238,0.2042,0.2041,0.2039,0.2038,0,0,0.1857,0.1876,0.1878,0.1893,0.1906,0.1921,0.1953,0.1986,0.2028,0.2047,0.2103,0.2135,0.2157,0.2168,0.2183,0.2232,0.2339,0.2233,0.2234,0.2277,0.2478,0.2321,0.2322,0.2361,0.2364,0.2366,0.2475,0,0.1864,0.1884,0.1892,0.1922,0.1932,0.1956,0.1993,0.2032,0.2063,0.2121,0.2153,0.2208,0.2189,0.2232,0.2279,0.2329,0.2381,0.231,0.2403,0.2405,0.2263,0.2334,0.212,0.2185,0.2489,0.2491,0.2493,0,0.1868,0.1883,0.1904,0.1951,0.196,0.199,0.2056,0.2094,0.2173,0.22,0.226,0.2291,0.238,0.2347,0.2466,0.2432,0.2463,0.2485,0.249,0.2322,0.2275,0.2167,0.22,0.2517,0.2515,0.2513,0.2512,0,0.186,0.1893,0.1911,0.1924,0.1975,0.2014,0.2056,0.2128,0.2174,0.2274,0.232,0.2406,0.2478,0.253,0.2564,0.2549,0.2671,0.2655,0.2536,0.2526,0.2345,0.2311,0.2733,0.2733,0.2733,0.2733,0.2732,0,0.1857,0.1881,0.192,0.1937,0.1987,0.2034,0.2103,0.216,0.2248,0.2302,0.2379,0.2427,0.2536,0.2602,0.2613,0.261,0.2718,0.2553,0.2548,0.2363,0.2331,0.2611,0.2595,0.2737,0.2736,0.2735,0.2734,0,0.1851,0.1868,0.1907,0.1966,0.1984,0.2038,0.212,0.2177,0.2267,0.2345,0.2388,0.2502,0.2578,0.2635,0.2729,0.2671,0.2679,0.2645,0.2402,0.2362,0.2487,0.2474,0.255,0.2546,0.2542,0.2539,0.2536,0,0.1847,0.1864,0.1917,0.195,0.1984,0.2051,0.2091,0.2175,0.2237,0.2354,0.2399,0.2508,0.2519,0.2581,0.2535,0.2524,0.2605,0.2299,0.2205,0.2483,0.2472,0.2465,0.2457,0.2019,0.2013,0.2007,0.2003,0,0.1854,0.1877,0.1913,0.195,0.1998,0.204,0.2119,0.2151,0.2247,0.2297,0.2344,0.2355,0.2391,0.2264,0.2249,0.2207,0.2278,0.2181,0.2582,0.2065,0.1982,0.197,0.1981,0.1954,0.1959,0.1962,0.1965,0.1967,0.1867,0.1885,0.1913,0.1947,0.2001,0.2024,0.2033,0.209,0.2124,0.2124,0.2189,0.2102,0.2069,0.1915,0.1842,0.1811,0.1974,0.1871,0.189,0.1914,0.18,0.171,0.1611,0.1614,0.1616,0.1618,0.162,0,0.1855,0.186,0.1898,0.1927,0.1944,0.1995,0.2034,0.1985,0.1955,0.1923,0.1877,0.1622,0.1509,0.1519,0.1386,0.1351,0.1371,0.1293,0.1309,0.1356,0.1399,0.126,0.0928,0.0927,0.0925,0.0923,0,0,0.1849,0.1841,0.1831,0.1825,0.1871,0.1869,0.1869,0.1768,0.1711,0.1526,0.1424,0.1398,0.1442,0.1153,0.1099,0.1004,0.1181,0.0958,0.151,0.1577,0.1618,0.1724,0.1561,0,0,0,0,0]},{"header":{"parameterUnit":"m.s-1","parameterCategory":2,"la1":30.2991,"la2":30.254,"lo1":-89.0895,"lo2":-89.0444,"dy":0.0017,"dx":0.0017,"nx":28,"ny":28,"refTime":"2024-03-12T21:00:00:Z","depth":"2","parameterNumber":3,"parameterNumberName":"V-component_of_CURRENTS"},"data":[0,0,0,0,0,0,0,0,0,0,0,0,0,0,0,0,0,0,0,0,0,0,0,0,0,0,0,0,0,0,0,0,0,0,0,0,0,0,0,0,0,0,0,0,0,0,0,0,0,0,0,0,0,0,0,0,0,0,0.0083,0.0083,0,0.0075,0.0075,0.0075,0.0068,0.0068,0.0068,0.0068,0.0051,0.0051,0.005,0,0,0,0,0,0,0,0,0,0,0,0,0,0.0083,0.0084,0.0083,0.0083,0.0083,0.0075,0.0075,0.0075,0.0068,0.0068,0.0068,0.0068,0.0051,0.0051,0.005,0,0,0,0,0,0,0,0,0,0,0,0,0,0.0081,0.0084,0.0083,0.0078,0.0077,0.0075,0.0075,0.0075,0.0068,0.0068,0.0068,0.0068,0.0051,0.0051,0.005,0.0053,0,0,0.0049,0.0049,0,0,0,0,0,0,0,0,0.0081,0.0081,0.0079,0.0078,0.0077,0.0071,0.0069,0.0067,0.0068,0.0073,0.0068,0.0067,0.0056,0.0056,0.0056,0.0052,0.0051,0.0049,0.0049,0.0048,0.0048,0,0,0,0,0,0,0,0.0081,0.0082,0.0081,0.0078,0.0078,0.0072,0.0072,0.0069,0.0067,0.0072,0.0072,0.0069,0.0056,0.0057,0.0056,0.0051,0.0049,0.0048,0.0048,0.0048,0.0043,0.0043,0,0,0,0,0,0,0.0081,0.0082,0.0081,0.0081,0.0077,0.0072,0.0072,0.0074,0.0067,0.0065,0.0069,0.0069,0.0058,0.0056,0.0055,0.0065,0.0048,0.0048,0.0048,0.0043,0.0043,0.0043,0,0,0,0,0,0,0.0081,0.0081,0.0082,0.008,0.0079,0.0073,0.0075,0.0074,0.0077,0.0065,0.0063,0.0073,0.0057,0.0056,0.0056,0.0064,0.0048,0.0047,0.0043,0.0043,0.0043,0.0079,0,0,0,0,0,0,0.0081,0.0082,0.0084,0.008,0.0079,0.0086,0.0075,0.0074,0.0075,0.0074,0.0067,0.0065,0.0057,0.0057,0.0055,0.0063,0.0047,0.0043,0.0043,0.0043,0.0078,0.0081,0.0083,0,0,0,0,0,0.0082,0.0088,0.0084,0.0084,0.0083,0.0086,0.0086,0.008,0.0076,0.0081,0.0074,0.0065,0.0057,0.0057,0.0055,0.0063,0.0042,0.0043,0.0043,0.0077,0.008,0.0083,0,0,0,0,0,0,0.0089,0.0088,0.0084,0.0089,0.0089,0.0084,0.0087,0.0084,0.0083,0.0082,0.007,0.0068,0.0069,0.006,0.006,0.006,0.0047,0.0047,0.0073,0.0076,0.0079,0.0103,0.0047,0,0,0,0,0,0.0091,0.0097,0.0093,0.0098,0.0098,0.0093,0.0093,0.0091,0.0088,0.0088,0.0082,0.0074,0.0069,0.0069,0.0061,0.0066,0.0061,0.0068,0.007,0.0072,0.0091,0.0089,0.0094,0.0044,0.0044,0.0044,0,0,0.0094,0.0095,0.0097,0.01,0.0098,0.0106,0.0093,0.0097,0.0107,0.0086,0.0097,0.0083,0.0071,0.0074,0.0074,0.0069,0.008,0.0073,0.0075,0.0092,0.009,0.0095,0.01,0.0044,0.0044,0.0044,0,0,0.0107,0.0105,0.0115,0.0117,0.0117,0.0117,0.0119,0.0118,0.012,0.0127,0.0111,0.0108,0.0101,0.0097,0.0093,0.0106,0.0091,0.0096,0.0134,0.0133,0.0137,0.0141,0.0127,0.013,0.0101,0.0101,0.0101,0,0.0111,0.0124,0.0118,0.0129,0.0135,0.0124,0.0139,0.014,0.014,0.0147,0.0135,0.0134,0.0115,0.0129,0.0129,0.0114,0.0107,0.0125,0.0138,0.0141,0.0145,0.013,0.0132,0.0103,0.0102,0.0102,0.0102,0,0.0132,0.0142,0.0149,0.0161,0.0167,0.0177,0.0178,0.0187,0.0186,0.0186,0.0198,0.018,0.0188,0.0169,0.0153,0.0169,0.0153,0.0139,0.0133,0.0152,0.0135,0.0137,0.0105,0.0104,0.0104,0.0103,0,0,0.0145,0.0161,0.0165,0.0182,0.0186,0.02,0.0215,0.0232,0.0258,0.0247,0.0281,0.0258,0.0256,0.0252,0.0232,0.0223,0.0225,0.0196,0.0195,0.0189,0.0216,0.0172,0.0169,0.0214,0.0215,0.0215,0.0189,0,0.0166,0.0197,0.0198,0.0233,0.0251,0.0252,0.0278,0.029,0.0295,0.0323,0.0308,0.0332,0.0287,0.0303,0.0285,0.025,0.0234,0.0233,0.0193,0.0192,0.0157,0.0172,0.0201,0.0178,0.0191,0.0191,0.0191,0,0.0191,0.0211,0.0247,0.0286,0.0296,0.0321,0.0366,0.0388,0.0411,0.0418,0.0431,0.0425,0.0429,0.0385,0.0343,0.0347,0.0289,0.0246,0.0244,0.0198,0.0152,0.0163,0.018,0.0194,0.0194,0.0193,0.0193,0,0.0215,0.0249,0.0284,0.0294,0.0333,0.0364,0.0394,0.0422,0.0455,0.0494,0.0528,0.0517,0.0548,0.0475,0.0387,0.0376,0.0323,0.0297,0.0198,0.0193,0.0209,0.0205,0.0259,0.0259,0.0259,0.0259,0.0259,0,0.024,0.027,0.0306,0.0328,0.039,0.0408,0.0474,0.0501,0.0549,0.0594,0.0595,0.0631,0.0576,0.0536,0.0424,0.0321,0.0355,0.0215,0.019,0.0219,0.0216,0.0225,0.0222,0.0258,0.0258,0.0258,0.0258,0,0.0257,0.0278,0.0326,0.0379,0.0404,0.0454,0.0528,0.0573,0.0624,0.0687,0.0715,0.0743,0.0695,0.0596,0.049,0.0393,0.0275,0.0219,0.0249,0.0228,0.0136,0.0135,0.0129,0.0127,0.0126,0.0125,0.0124,0,0.0264,0.0292,0.0359,0.04,0.0429,0.05,0.0549,0.0607,0.0658,0.0738,0.0779,0.0782,0.0771,0.0612,0.0449,0.027,0.0236,0.0175,0.0154,0.015,0.0126,0.0127,0.0127,0.0185,0.0185,0.0184,0.0184,0,0.0279,0.0307,0.0351,0.0417,0.0481,0.0537,0.0619,0.0673,0.0742,0.0817,0.0872,0.0874,0.0756,0.0622,0.0411,0.028,0.0209,0.0161,0.0173,0.0203,0.0198,0.0176,0.0176,0.0181,0.0182,0.0182,0.0182,0.0182,0.0292,0.0323,0.0372,0.0437,0.0502,0.0557,0.0615,0.071,0.0801,0.0904,0.0894,0.0902,0.0772,0.0506,0.0336,0.0171,0.0167,0.0104,0.0107,0.0111,0.0112,0.0103,0.0069,0.0069,0.0069,0.0068,0.0068,0,0.0296,0.0325,0.0382,0.0454,0.0506,0.054,0.0644,0.0705,0.0825,0.0909,0.0951,0.078,0.0671,0.0506,0.028,0.0133,0.0139,0.0071,0.0128,0.0131,0.0134,0.0139,0.0102,0.0102,0.0101,0.0101,0,0,0.0303,0.0335,0.0356,0.0421,0.0481,0.0542,0.06,0.0713,0.0798,0.0872,0.0893,0.087,0.0705,0.0527,0.0351,0.0243,0.0213,0.0205,0.0194,0.0287,0.0292,0.0168,0.018,0,0,0,0,0]}],[{"header":{"parameterUnit":"m.s-1","parameterCategory":2,"la1":30.2991,"la2":30.254,"lo1":-89.0895,"lo2":-89.0444,"dy":0.0017,"dx":0.0017,"nx":28,"ny":28,"refTime":"2024-03-12T21:00:00:Z","depth":"4","parameterNumber":2,"parameterNumberName":"U-component_of_CURRENTS"},"data":[0,0,0,0,0,0,0,0,0,0,0,0,0,0,0,0,0,0,0,0,0,0,0,0,0,0,0,0,0,0,0,0,0,0,0,0,0,0,0,0,0,0,0,0,0,0,0,0,0,0,0,0,0,0,0,0,0,0,0.1101,0.1101,0,0.1113,0.1113,0.1113,0.1136,0.1137,0.1137,0.1138,0.1154,0.1154,0.1153,0,0,0,0,0,0,0,0,0,0,0,0,0,0.1094,0.1094,0.1101,0.1101,0.1101,0.1113,0.1113,0.1113,0.1136,0.1137,0.1138,0.1138,0.1154,0.1154,0.1153,0,0,0,0,0,0,0,0,0,0,0,0,0,0.1099,0.1094,0.1101,0.1116,0.1117,0.1113,0.1113,0.1113,0.1136,0.1137,0.1138,0.1139,0.1154,0.1154,0.1153,0.1133,0,0,0.1153,0.1153,0,0,0,0,0,0,0,0,0.1098,0.1099,0.1113,0.1115,0.1117,0.1125,0.1116,0.112,0.1136,0.1127,0.1138,0.1139,0.1145,0.1146,0.1143,0.1134,0.1135,0.1153,0.1153,0.1152,0.1152,0,0,0,0,0,0,0,0.1098,0.1098,0.1104,0.1114,0.1116,0.112,0.1122,0.1117,0.1129,0.1128,0.113,0.1134,0.1146,0.1143,0.1144,0.1135,0.1153,0.1152,0.1152,0.1152,0.1188,0.1189,0,0,0,0,0,0,0.1099,0.1098,0.1103,0.1104,0.1112,0.112,0.1122,0.112,0.1129,0.1132,0.1133,0.1135,0.1143,0.1144,0.1144,0.1187,0.1152,0.1152,0.1152,0.1187,0.1189,0.119,0,0,0,0,0,0,0.1099,0.1099,0.1103,0.1103,0.1104,0.1119,0.1117,0.112,0.1142,0.1134,0.1136,0.1156,0.1144,0.1145,0.1167,0.1185,0.1152,0.1152,0.1186,0.1188,0.1189,0.123,0,0,0,0,0,0,0.1098,0.1099,0.111,0.1103,0.1104,0.1113,0.1117,0.112,0.1142,0.1145,0.1153,0.1154,0.1145,0.1168,0.1167,0.1184,0.1152,0.1185,0.1187,0.1189,0.1227,0.1232,0.1237,0,0,0,0,0,0.1098,0.1102,0.111,0.1112,0.1115,0.1114,0.1115,0.1128,0.1143,0.1152,0.1166,0.1155,0.118,0.1168,0.1167,0.1185,0.1184,0.1186,0.1188,0.1225,0.1231,0.1237,0,0,0,0,0,0,0.1105,0.1104,0.1114,0.1118,0.1125,0.1119,0.1132,0.1141,0.1158,0.1171,0.1166,0.1168,0.1195,0.1186,0.1173,0.1203,0.1181,0.1183,0.1209,0.1215,0.122,0.1228,0.1151,0,0,0,0,0,0.1112,0.1116,0.1117,0.1124,0.1129,0.1137,0.1144,0.1153,0.1161,0.1171,0.1179,0.119,0.1199,0.1206,0.1209,0.1222,0.1227,0.1235,0.124,0.1244,0.1251,0.1289,0.1298,0.1198,0.1198,0.1198,0,0,0.1118,0.1119,0.1123,0.1127,0.1135,0.114,0.1144,0.1159,0.1173,0.1169,0.12,0.1209,0.1208,0.1227,0.1238,0.1225,0.1273,0.1247,0.1251,0.1256,0.1292,0.1302,0.1311,0.12,0.1199,0.1199,0,0,0.1122,0.1134,0.1137,0.1144,0.1158,0.116,0.1171,0.1181,0.1198,0.1223,0.1229,0.1254,0.1263,0.1268,0.127,0.1306,0.1301,0.1309,0.1339,0.1376,0.1384,0.1392,0.1401,0.1409,0.131,0.131,0.131,0,0.1135,0.1135,0.114,0.1145,0.1155,0.1172,0.118,0.1194,0.1215,0.1235,0.1242,0.1284,0.1282,0.1308,0.1323,0.1317,0.1332,0.1314,0.1383,0.139,0.1398,0.1405,0.1413,0.1312,0.1312,0.1312,0.1311,0,0.1132,0.1144,0.1148,0.116,0.117,0.1182,0.1199,0.1226,0.1254,0.1269,0.1317,0.1327,0.1355,0.1357,0.135,0.1399,0.1391,0.1387,0.1366,0.141,0.1415,0.1423,0.1315,0.1315,0.1314,0.1313,0,0,0.1126,0.1144,0.1149,0.1159,0.1181,0.1186,0.1221,0.1249,0.1281,0.1318,0.1363,0.1386,0.141,0.1415,0.1418,0.1445,0.1501,0.1443,0.1444,0.145,0.1574,0.1441,0.1437,0.1518,0.152,0.1522,0.1553,0,0.1127,0.1137,0.1148,0.1168,0.1174,0.1205,0.1235,0.1269,0.1305,0.1354,0.1389,0.1432,0.1425,0.1454,0.1483,0.1502,0.1527,0.1492,0.1532,0.1532,0.1408,0.1443,0.1528,0.1559,0.156,0.1562,0.1563,0,0.1115,0.1126,0.1144,0.1175,0.1184,0.1206,0.126,0.1288,0.1356,0.1393,0.1449,0.1479,0.1535,0.1526,0.1587,0.1571,0.158,0.1587,0.1588,0.1457,0.1414,0.1509,0.1577,0.1576,0.1575,0.1574,0.1573,0,0.1093,0.1121,0.1138,0.1147,0.1187,0.1217,0.1249,0.1307,0.1338,0.1429,0.1465,0.1537,0.1577,0.1621,0.1632,0.1629,0.1686,0.1678,0.1563,0.1553,0.1646,0.1638,0.1724,0.1723,0.1723,0.1723,0.1723,0,0.1071,0.1087,0.1136,0.1143,0.1177,0.1214,0.1262,0.1308,0.1378,0.1411,0.149,0.1522,0.1609,0.1642,0.1658,0.1624,0.1709,0.1571,0.1557,0.166,0.1653,0.1651,0.1642,0.1724,0.1724,0.1724,0.1724,0,0.1031,0.1065,0.1086,0.1141,0.1164,0.119,0.1259,0.1286,0.1366,0.1415,0.1451,0.1531,0.1572,0.162,0.1677,0.1628,0.1629,0.1594,0.1689,0.1679,0.1468,0.1461,0.1478,0.1473,0.147,0.1467,0.1464,0,0.1006,0.1016,0.1077,0.109,0.1117,0.1167,0.1196,0.1278,0.1294,0.1396,0.1401,0.1478,0.152,0.1484,0.1553,0.1566,0.1545,0.1531,0.1509,0.146,0.1446,0.1444,0.1442,0.1458,0.1457,0.1456,0.1455,0,0.0952,0.0989,0.1004,0.1037,0.1069,0.1091,0.1133,0.1136,0.1221,0.1316,0.1317,0.1341,0.137,0.1403,0.1412,0.1424,0.1538,0.1493,0.15,0.148,0.1437,0.1426,0.1428,0.1443,0.1445,0.1446,0.1446,0,0.0917,0.0914,0.0943,0.0959,0.0993,0.0977,0.102,0.103,0.1062,0.1169,0.1172,0.1258,0.1348,0.1328,0.1345,0.1337,0.1321,0.1277,0.1296,0.1311,0.1241,0.1162,0.1073,0,0,0,0,0,0.0869,0.0847,0.0855,0.0854,0.0884,0.0905,0.0949,0.0993,0.1083,0.1046,0.11,0.1126,0.1149,0.1194,0.1152,0.1273,0.1326,0.1219,0.1285,0.1372,0.1387,0.132,0,0,0,0,0,0,0.083,0.0833,0.082,0.0758,0.0747,0.0764,0.079,0.0858,0.0831,0.094,0.0953,0.1051,0.1087,0.1162,0.1132,0.1146,0.1159,0.1282,0.1278,0.1364,0.1377,0.1389,0.1326,0,0,0,0,0]},{"header":{"parameterUnit":"m.s-1","parameterCategory":2,"la1":30.2991,"la2":30.254,"lo1":-89.0895,"lo2":-89.0444,"dy":0.0017,"dx":0.0017,"nx":28,"ny":28,"refTime":"2024-03-12T21:00:00:Z","depth":"4","parameterNumber":3,"parameterNumberName":"V-component_of_CURRENTS"},"data":[0,0,0,0,0,0,0,0,0,0,0,0,0,0,0,0,0,0,0,0,0,0,0,0,0,0,0,0,0,0,0,0,0,0,0,0,0,0,0,0,0,0,0,0,0,0,0,0,0,0,0,0,0,0,0,0,0,0,0.0066,0.0066,0,0.0069,0.0069,0.0069,0.0071,0.0071,0.0071,0.0071,0.0076,0.0076,0.0076,0,0,0,0,0,0,0,0,0,0,0,0,0,0.0059,0.0059,0.0066,0.0066,0.0066,0.0069,0.0069,0.0069,0.0071,0.0071,0.0071,0.0071,0.0076,0.0076,0.0076,0,0,0,0,0,0,0,0,0,0,0,0,0,0.0063,0.0059,0.0066,0.0067,0.0067,0.0069,0.0069,0.0069,0.0071,0.0071,0.0071,0.0071,0.0075,0.0076,0.0076,0.008,0,0,0.0077,0.0077,0,0,0,0,0,0,0,0,0.0063,0.0063,0.0066,0.0066,0.0066,0.0069,0.0068,0.0073,0.0072,0.0071,0.0071,0.0071,0.0073,0.0073,0.0076,0.008,0.008,0.0077,0.0077,0.0077,0.0077,0,0,0,0,0,0,0,0.0063,0.0063,0.0068,0.0066,0.0066,0.0066,0.0066,0.0069,0.0073,0.0071,0.0071,0.007,0.0073,0.0075,0.0076,0.008,0.0077,0.0077,0.0077,0.0077,0.0086,0.0086,0,0,0,0,0,0,0.0061,0.0063,0.0068,0.0068,0.0063,0.0066,0.0067,0.0069,0.0073,0.0073,0.007,0.007,0.0075,0.0075,0.0076,0.0085,0.0077,0.0077,0.0078,0.0086,0.0086,0.0086,0,0,0,0,0,0,0.0061,0.0061,0.0068,0.0065,0.0065,0.0066,0.0069,0.0069,0.0073,0.0072,0.0072,0.0073,0.0075,0.0075,0.0082,0.0085,0.0078,0.0078,0.0086,0.0086,0.0086,0.0101,0,0,0,0,0,0,0.006,0.0061,0.0063,0.0065,0.0065,0.0073,0.0069,0.0069,0.0072,0.0072,0.0075,0.0075,0.0075,0.0081,0.0082,0.0085,0.0078,0.0086,0.0086,0.0086,0.01,0.0101,0.0102,0,0,0,0,0,0.006,0.0064,0.0063,0.0064,0.0068,0.0073,0.0073,0.0074,0.0072,0.0077,0.0078,0.0075,0.0082,0.0082,0.0082,0.0086,0.0086,0.0086,0.0086,0.01,0.0101,0.0102,0,0,0,0,0,0,0.0061,0.0065,0.0064,0.0068,0.0071,0.0073,0.0075,0.0076,0.008,0.008,0.0079,0.008,0.0086,0.0083,0.0083,0.0088,0.0082,0.0083,0.0092,0.0094,0.0095,0.0098,0.0078,0,0,0,0,0,0.0062,0.0067,0.0069,0.0072,0.0074,0.0075,0.0077,0.0078,0.0081,0.0083,0.0085,0.0085,0.0087,0.0088,0.009,0.0095,0.0078,0.0096,0.0097,0.0098,0.0101,0.0077,0.0076,0.0087,0.0087,0.0087,0,0,0.0062,0.0065,0.0067,0.0073,0.0075,0.0082,0.0076,0.0081,0.0089,0.0083,0.0094,0.0091,0.0089,0.0095,0.0097,0.0094,0.0085,0.0099,0.0099,0.0101,0.0077,0.0076,0.0075,0.0087,0.0087,0.0087,0,0,0.0068,0.0069,0.0076,0.0081,0.0085,0.0087,0.0089,0.0094,0.0097,0.0107,0.0102,0.01,0.0107,0.0104,0.0104,0.0111,0.0092,0.011,0.0119,0.0096,0.0095,0.0094,0.0064,0.006,0.011,0.011,0.011,0,0.0068,0.0079,0.0079,0.0088,0.0093,0.0091,0.0101,0.0106,0.0112,0.0114,0.0113,0.0113,0.0111,0.0113,0.0116,0.0114,0.0094,0.0115,0.0097,0.0096,0.0094,0.0064,0.0059,0.0111,0.0111,0.0111,0.0111,0,0.0081,0.009,0.0094,0.0107,0.0112,0.0121,0.0126,0.0133,0.0135,0.0135,0.0138,0.0133,0.0132,0.0129,0.0127,0.0117,0.0104,0.0101,0.0094,0.0094,0.0062,0.0057,0.0112,0.0112,0.0112,0.0111,0,0,0.0083,0.01,0.0103,0.0113,0.0124,0.0132,0.0144,0.0154,0.0159,0.016,0.0164,0.0162,0.0152,0.0151,0.0142,0.0123,0.0094,0.011,0.0108,0.008,0.0035,0.0049,0.0045,0.0087,0.0086,0.0086,0.0014,0,0.0094,0.0114,0.0121,0.0143,0.0154,0.0159,0.0173,0.0179,0.0179,0.0181,0.0171,0.0171,0.0163,0.016,0.0141,0.0108,0.0083,0.0113,0.0039,0.0037,0.005,0.004,0.0084,0.001,0.0009,0.0008,0.0008,0,0.0106,0.0119,0.0141,0.0164,0.017,0.0183,0.0199,0.0211,0.021,0.0209,0.0201,0.0189,0.0169,0.0161,0.01,0.0119,0.008,0.005,0.0046,0.0052,0.0042,0.0011,-0.0002,-0.0001,-0.0,0.0,0.0001,0,0.011,0.0135,0.0154,0.0162,0.0185,0.0199,0.0213,0.0218,0.0231,0.0224,0.0225,0.0196,0.0186,0.0135,0.0081,0.0085,0.0008,0.0004,-0.0024,-0.0025,-0.0023,-0.002,-0.0045,-0.0045,-0.0044,-0.0044,-0.0044,0,0.0119,0.0135,0.0159,0.017,0.0197,0.021,0.0234,0.0241,0.0251,0.0269,0.024,0.0242,0.018,0.0134,0.0078,0.0014,0.0002,-0.0026,-0.004,-0.0016,-0.0012,-0.0027,-0.0024,-0.0047,-0.0046,-0.0046,-0.0045,0,0.0115,0.0133,0.0156,0.0185,0.02,0.0218,0.0256,0.0273,0.0278,0.0299,0.03,0.0269,0.0216,0.0145,0.0057,0.0016,-0.0052,-0.0074,-0.0049,-0.006,-0.0073,-0.0069,-0.0118,-0.0118,-0.0118,-0.0118,-0.0118,0,0.0113,0.0126,0.0164,0.0185,0.0201,0.0234,0.0262,0.0286,0.0307,0.0322,0.0334,0.0291,0.0265,0.0147,0.0069,-0.0047,-0.0056,-0.0103,-0.0082,-0.0071,-0.008,-0.0076,-0.0071,-0.0119,-0.0119,-0.0119,-0.0119,0,0.0107,0.0122,0.0144,0.0189,0.0224,0.0263,0.0305,0.0324,0.036,0.036,0.0368,0.0317,0.0257,0.0165,0.0074,-0.0005,-0.0079,-0.0104,-0.0105,-0.0085,-0.0072,-0.008,-0.0075,-0.0119,-0.0119,-0.0119,-0.0119,0,0.0105,0.0118,0.0154,0.0197,0.0241,0.0289,0.0309,0.0348,0.0373,0.0396,0.0398,0.0339,0.0303,0.0186,0.0104,0.0026,0.0008,-0.0022,-0.0027,-0.0028,0.0027,0.0058,0.0037,0,0,0,0,0,0.0108,0.0132,0.0163,0.0217,0.026,0.029,0.0341,0.036,0.0395,0.0409,0.0409,0.0361,0.0259,0.0205,0.0131,0.0092,-0.0018,-0.0,-0.0058,-0.012,-0.0119,-0.0069,0,0,0,0,0,0,0.0114,0.0144,0.0163,0.0229,0.0266,0.032,0.0355,0.0377,0.0385,0.0405,0.0349,0.0336,0.0227,0.0302,0.0127,0.0103,0.0055,-0.0048,-0.005,-0.012,-0.012,-0.0119,-0.0067,0,0,0,0,0]}]]